Tracking 35274 objects as of 12-Sep-2026
HD Live streaming from Space Station
objects crossing your sky now

COSMOS 2209

Track COSMOS 2209 now!
COSMOS 2209 is classified as:


NORAD ID: 22112
Int'l Code: 1992-059A
Launch date: September 10, 1992
Source: Commonwealth of Independent States (former USSR) (CIS)
Launch site: TYURATAM MISSILE AND SPACE COMPLEX (TTMTR)
Your satellite tracking list
Your tracking list is empty




NASA's NSSDC Master Catalog

Two Line Element Set (TLE):
1 22112U 92059A   26254.23764284 -.00000266  00000-0  00000-0 0  9993
2 22112  13.5272 342.0033 0011336 342.9086  34.1961  1.00173339124481
Source of the keplerian elements: AFSPC